Simultaneous Nadir Overpasses (SNOs) Predictions

Prediction of SNOs between AURA and NPP Satellite Orbit:

Table of predicted SNOs for the next 14.0 days since TLE Epoch: 7/4/2020
Index Date (AURA) Time (AURA) Lat,Lon (AURA) SZA (AURA ) Date (NPP) Time (NPP) Lat,Lon (NPP) SZA (NPP ) Distance(km) Time Diff (sec)
1 07/06/2020 11:25:09 -79.27, 84.03 109.29 07/06/2020 11:24:22 -79.26, 83.88 109.23 3.11 47
2 07/06/2020 12:14:26 79.61,-106.02 70.22 07/06/2020 12:14:56 79.62,-105.96 70.18 1.43 30
3 07/09/2020 03:41:34 -79.43,-159.02 109.21 07/09/2020 03:41:14 -79.43,-159.05 109.19 0.70 20
4 07/09/2020 04:30:54 79.65, 10.17 70.47 07/09/2020 04:31:52 79.64, 10.06 70.45 2.46 58
5 07/11/2020 19:08:40 79.27, 148.16 71.39 07/11/2020 19:07:30 79.28, 148.20 71.43 0.92 70
6 07/11/2020 19:58:00 -79.55, -42.32 109.03 07/11/2020 19:58:07 -79.56, -42.22 109.05 2.04 7
7 07/14/2020 11:25:08 79.31, -95.70 71.73 07/14/2020 11:24:26 79.31, -95.81 71.78 2.50 42
8 07/14/2020 12:14:28 -79.59, 73.85 108.69 07/14/2020 12:15:03 -79.59, 73.79 108.70 1.33 35
9 07/17/2020 03:41:32 79.47, 21.20 71.95 07/17/2020 03:41:17 79.47, 21.24 71.95 0.77 15
